Weather History for Houlton, ME

Change the Weather History Date:

Thursday, November 1, 2012

  Actual Average Record
Temperature  
Mean Temperature 53 °F 38 °F  
Max Temperature 57 °F 47 °F 71 °F (1956)
Min Temperature 48 °F 29 °F 9 °F (1972)
Degree Days  
Heating Degree Days 12 27  
Month to date heating degree days 12 27  
Since 1 July heating degree days 881 1163  
Cooling Degree Days 0 0  
Month to date cooling degree days 0 0  
Year to date cooling degree days 277 191  
Growing Degree Days 2 (Base 50)    
Moisture  
Dew Point 47 °F    
Average Humidity 85    
Maximum Humidity 93    
Minimum Humidity 77    
Precipitation  
Precipitation 0.13 in 0.14 in 1.70 in (1994)
Month to date precipitation 0.13 0.14  
Year to date precipitation 40.95 32.82  
Sea Level Pressure  
Sea Level Pressure 29.51 in    
Wind  
Wind Speed 3 mph (South)    
Max Wind Speed 13 mph    
Max Gust Speed 20 mph    
Visibility 8 miles    
Events Rain    
T = Trace of Precipitation, MM = Missing Value Source: NWS Daily Summary

Daily Weather History Graph

Daily Weather History Graph

Search for Another Location

Airport:

Trip Planner

Search our weather history database for the weather conditions in past years. The results will help you decide how hot, cold, wet, or windy it might be!

Date:

Astronomy

Nov. 01, 2012 Rise Set
Actual Time 7:12 AM EDT 5:16 PM EDT
Civil Twilight 6:41 AM EDT 5:47 PM EDT
Nautical Twilight 6:05 AM EDT 6:22 PM EDT
Astronomical Twilight 5:30 AM EDT 6:57 PM EDT
Moon 7:03 PM EDT (11/1) 9:49 AM EDT (11/1)
Length of Visible Light 11h 06m
Length of Day
10h 03m
Waning Gibbous, 93% of the Moon is Illuminated
Nov 1
Waning Gibbous
Nov 6
Last Quarter
Nov 13
New
Nov 20
First Quarter
Nov 28
Full

Hourly Weather History & Observations

Time (EDT) Temp. Dew Point Humidity Pressure Visibility Wind Dir Wind Speed Gust Speed Precip Events Conditions
12:43 AM 57.2 °F 53.6 °F 88% 29.50 in 10.0 mi South 4.6 mph - N/A   Overcast
12:53 AM 57.0 °F 54.0 °F 89% 29.51 in 9.0 mi Variable 5.8 mph - N/A   Overcast
1:03 AM 57.2 °F 53.6 °F 88% 29.51 in 2.5 mi SW 10.4 mph 19.6 mph 0.03 in Rain Rain
1:16 AM 55.4 °F 51.8 °F 88% 29.51 in 6.0 mi SSW 6.9 mph - 0.04 in Rain Light Rain
1:53 AM 54.0 °F 51.1 °F 90% 29.52 in 10.0 mi SSW 10.4 mph 16.1 mph 0.04 in   Overcast
2:28 AM 51.8 °F 48.2 °F 88% 29.52 in 10.0 mi SW 4.6 mph - N/A   Mostly Cloudy
2:37 AM 51.8 °F 50.0 °F 94% 29.53 in 10.0 mi South 3.5 mph - N/A   Mostly Cloudy
2:53 AM 51.8 °F 48.2 °F 88% 29.52 in 10.0 mi South 3.5 mph - N/A   Overcast
3:13 AM 51.8 °F 48.2 °F 88% 29.52 in 10.0 mi South 3.5 mph - N/A   Scattered Clouds
3:26 AM 51.8 °F 48.2 °F 88% 29.52 in 10.0 mi South 4.6 mph - N/A   Partly Cloudy
3:53 AM 51.1 °F 48.0 °F 89% 29.53 in 10.0 mi Variable 3.5 mph - N/A   Partly Cloudy
4:41 AM 50.0 °F 48.2 °F 94% 29.53 in 10.0 mi Calm Calm - N/A   Mostly Cloudy
4:53 AM 50.0 °F 46.9 °F 89% 29.53 in 10.0 mi SSW 4.6 mph - N/A   Overcast
5:32 AM 48.2 °F 46.4 °F 93% 29.53 in 10.0 mi South 3.5 mph - N/A   Scattered Clouds
5:53 AM 48.0 °F 46.0 °F 93% 29.53 in 10.0 mi SSE 5.8 mph - N/A   Partly Cloudy
6:36 AM 48.2 °F 46.4 °F 93% 29.54 in 10.0 mi Calm Calm - N/A   Mostly Cloudy
6:53 AM 48.9 °F 46.0 °F 90% 29.55 in 10.0 mi SSE 3.5 mph - N/A   Mostly Cloudy
7:53 AM 48.9 °F 46.0 °F 90% 29.56 in 10.0 mi SSE 5.8 mph - N/A   Overcast
8:19 AM 48.2 °F 46.4 °F 93% 29.55 in 10.0 mi SE 5.8 mph - N/A   Mostly Cloudy
8:53 AM 50.0 °F 46.9 °F 89% 29.55 in 10.0 mi SE 6.9 mph - N/A   Partly Cloudy
9:20 AM 50.0 °F 46.4 °F 87% 29.55 in 10.0 mi SSE 8.1 mph - N/A   Partly Cloudy
9:53 AM 51.1 °F 46.9 °F 86% 29.56 in 10.0 mi Variable 3.5 mph - N/A   Overcast
10:53 AM 51.1 °F 46.0 °F 83% 29.57 in 10.0 mi South 5.8 mph - N/A   Overcast
11:12 AM 51.8 °F 46.4 °F 82% 29.56 in 10.0 mi South 5.8 mph - N/A   Overcast
11:34 AM 51.8 °F 46.4 °F 82% 29.55 in 10.0 mi Variable 4.6 mph - 0.00 in   Overcast
11:45 AM 51.8 °F 48.2 °F 88% 29.55 in 10.0 mi South 4.6 mph - 0.00 in   Overcast
11:53 AM 52.0 °F 48.0 °F 86% 29.55 in 10.0 mi Variable 3.5 mph - 0.00 in   Overcast
12:53 PM 53.1 °F 46.9 °F 80% 29.53 in 10.0 mi South 3.5 mph - N/A   Overcast
1:53 PM 52.0 °F 46.0 °F 80% 29.52 in 10.0 mi SSE 6.9 mph - N/A   Overcast
2:53 PM 52.0 °F 46.0 °F 80% 29.51 in 10.0 mi SSW 4.6 mph - N/A   Overcast
3:26 PM 50.0 °F 46.4 °F 87% 29.50 in 4.0 mi Calm Calm - 0.00 in Rain Light Rain
3:53 PM 50.0 °F 48.0 °F 93% 29.50 in 4.0 mi SSE 3.5 mph - 0.01 in Rain Light Rain
4:35 PM 50.0 °F 48.2 °F 94% 29.49 in 3.0 mi Calm Calm - 0.02 in Rain Light Rain
4:53 PM 50.0 °F 46.9 °F 89% 29.49 in 3.0 mi Calm Calm - 0.03 in Rain Light Rain
5:43 PM 48.2 °F 46.4 °F 93% 29.49 in 3.0 mi Calm Calm - 0.03 in Rain Light Rain
5:53 PM 48.9 °F 46.9 °F 93% 29.49 in 4.0 mi Calm Calm - 0.03 in Rain Light Rain
6:00 PM 48.2 °F 46.4 °F 93% 29.48 in 4.0 mi Calm Calm - 0.00 in Rain Light Rain
6:32 PM 48.2 °F 46.4 °F 93% 29.48 in 10.0 mi Calm Calm - 0.00 in   Overcast
6:53 PM 48.9 °F 46.9 °F 93% 29.49 in 10.0 mi Calm Calm - 0.01 in   Overcast
7:45 PM 48.2 °F 46.4 °F 93% 29.48 in 3.0 mi Calm Calm - 0.00 in   Overcast
7:53 PM 48.9 °F 46.9 °F 93% 29.49 in 2.0 mi Calm Calm - 0.00 in   Overcast
8:03 PM 48.2 °F 46.4 °F 93% 29.48 in 3.0 mi Calm Calm - N/A   Overcast
8:28 PM 48.2 °F 46.4 °F 93% 29.47 in 6.0 mi Calm Calm - N/A   Overcast
8:53 PM 48.9 °F 46.9 °F 93% 29.48 in 5.0 mi Calm Calm - N/A   Overcast
9:07 PM 48.2 °F 46.4 °F 93% 29.48 in 4.0 mi Calm Calm - N/A   Overcast
9:40 PM 48.2 °F 46.4 °F 93% 29.47 in 5.0 mi Calm Calm - 0.01 in   Overcast
9:48 PM 48.2 °F 46.4 °F 93% 29.47 in 4.0 mi Calm Calm - 0.01 in Rain Light Rain
9:53 PM 48.9 °F 46.9 °F 93% 29.48 in 4.0 mi Calm Calm - 0.01 in Rain Light Rain
10:11 PM 48.2 °F 46.4 °F 93% 29.47 in 4.0 mi Calm Calm - 0.01 in Rain Light Rain
10:20 PM 48.2 °F 46.4 °F 93% 29.47 in 7.0 mi Calm Calm - 0.01 in   Overcast
10:32 PM 48.2 °F 46.4 °F 93% 29.47 in 9.0 mi SSW 3.5 mph - 0.01 in   Overcast
10:45 PM 48.2 °F 46.4 °F 93% 29.47 in 10.0 mi SW 3.5 mph - 0.01 in   Overcast
10:53 PM 48.9 °F 46.9 °F 93% 29.48 in 10.0 mi SSW 3.5 mph - 0.01 in   Overcast
11:53 PM 48.9 °F 46.9 °F 93% 29.47 in 10.0 mi Calm Calm - N/A   Overcast